Retour au catalogue

TELSTAR 1

ActifCommunicationsUNKNOWN
NORAD 340·PAYLOAD·🇺🇸 United States

Lancé Jul 10, 1962 depuis Cape Canaveral Space Force Station

Loading…

Prochains Passages (prochaines 24 heures)

TLE

FraisSource: Space-Track

Époque: Sep 5, 2026, 20:16 UTC

1 00340U 62029A   26248.84470251 -.00000062  00000-0 -29232-3 0  9990
2 00340  44.8067 169.9424 2428662 302.5697  65.4444  9.12895699139823

Suivez TELSTAR 1 en temps réel avec AllMySat

Download on the App Store